sat.trackr.live / text

‹ back to catalog

STARLINK-37173

NORAD 68536 · 2026-068AE

PAYLOAD ACTIVE UNKNOWN

§ Identity

Operator
Country
US
Launch date
2026-03-30
Launch site
AFETR
Launch vehicle
Mass (kg)
RCS (m²)

Purposes: comms

External: N2YO · Heavens-Above · Gunter

§ Orbital elements

Epoch: 2026-09-19T19:47:09.033504Z

Period
93.85 min
Inclination
53.1569°
Eccentricity
0.0001214
Mean motion
15.34393502 rev/d
Perigee alt
461.9 km
Apogee alt
463.6 km
Semi-major
6,840.9 km
B*
3.3842e-4
RAAN
297.1594°
Arg perigee
82.1625°
Mean anomaly
277.9515°
Rev number
2,681

§ Raw data

STARLINK-371731 68536U 26068AE  26262.82441011  .00011072  00000+0  33842-3 0  99922 68536  53.1569 297.1594 0001214  82.1625 277.9515 15.34393502 26816

JSON: /api/v1/satellites/68536 · /tle

For live sub-satellite position, see the globe view (requires WebGL).

§ Visibility from observer

Set your observer location to see the next 7 days of passes ≥ 10°. The values pass through the URL so the page stays shareable.

No JS? Fill the form by hand. The geolocation button needs JavaScript.